Location: Ward Pound Ridge Reservation
(41.2500°N, 73.6000°W)
Time: 23:03:43
(UTC-05:00)

OTV 5 (USA 277) - Pass Details

Date: 09 October 2017
Orbit: 404 x 417 km, 43.0° (Epoch: 07 September)

Event Time Altitude Azimuth Distance (km) Brightness Sun altitude
Rises 18:57:42 0° 208° (SSW) 2,341 ? -7.4°
Reaches altitude 10° 19:00:19 10° 187° (S) 1,483 ? -7.9°
Maximum altitude 19:02:32 17° 146° (SE) 1,146 ? -8.3°
Enters shadow 19:04:34 11° 107° (ESE) 1,433 ? -8.7°
